Wind_Speed
22 25 25 27 27 27 27 24 24 22 19 15 18 14 14 13 12 10 10 11 7 9 8 7 6 8 8 13 11 7 6 9 8 12 14 16 15 12 17 15 15 17 19
26 26 27 27 26 25 28 27 25 22 18 17 16 13 14 12 11 11 12 8 7 8 9 8 9 6 7 9 12 12 7 9 10 15 15 18 15 14 17 17 19 18 19
27 27 27 25 22 26 24 22 19 19 17 15 14 11 13 13 10 9 10 7 8 9 9 10 10 9 8 9 9 12 9 10 15 15 18 19 18 17 19 18 17 19 19
28 25 25 24 24 24 22 19 18 17 17 16 15 13 12 13 10 9 7 10 9 9 8 7 9 9 10 10 11 10 9 11 15 12 18 19 22 20 19 20 21 22 23
26 25 25 24 22 22 20 19 17 17 16 14 14 12 12 14 9 10 9 10 10 9 8 5 4 8 11 9 11 15 8 16 18 13 19 23 24 22 21 22 26 26 24
27 25 24 22 20 19 18 19 18 17 15 14 15 13 13 11 10 10 10 9 11 11 9 4 7 4 10 12 9 10 13 16 10 17 19 23 25 23 23 25 30 31 29
25 23 21 20 21 22 20 19 17 17 16 16 15 14 15 13 10 11 11 9 9 11 9 8 7 5 10 12 11 13 15 11 5 10 15 18 25 25 26 27 31 35 35
22 21 21 22 19 20 19 18 15 16 16 16 15 14 13 10 10 9 9 9 9 9 7 5 6 5 11 11 13 13 12 10 14 10 8 11 14 22 30 26 32 33 31
22 22 21 22 17 17 18 19 18 17 18 16 13 11 11 9 8 7 10 9 10 8 8 3 4 8 13 14 14 13 13 15 15 8 8 10 12 16 30 27 30 34 32
21 21 19 21 17 16 15 18 16 14 16 14 12 11 9 7 8 9 9 8 9 9 4 5 6 10 12 17 14 17 15 15 13 11 12 12 12 18 24 27 28 33 33
21 19 20 18 15 16 15 16 14 13 13 14 13 11 9 7 10 11 10 7 5 5 4 5 7 12 14 16 15 14 14 16 12 12 17 18 17 17 20 25 26 26 31
21 21 21 18 14 14 14 14 14 13 13 15 14 13 12 8 11 10 9 7 4 5 5 3 8 16 17 16 17 18 13 12 12 14 19 20 19 17 18 17 22 21 24
22 23 21 17 15 14 12 14 13 12 11 13 13 11 7 10 12 10 7 5 5 8 4 4 10 20 20 19 16 12 12 11 14 17 19 19 17 17 19 18 17 13 16
25 21 18 18 18 13 12 12 12 13 11 11 14 10 11 8 10 12 9 7 7 6 4 7 18 23 21 18 20 17 15 11 12 16 18 18 17 22 20 17 18 22 11
23 19 17 16 18 14 13 12 12 13 11 12 12 12 9 11 9 8 9 8 7 6 7 13 22 21 22 22 19 17 15 13 11 16 20 20 21 23 22 19 23 16 12
25 20 14 16 17 14 13 13 12 10 11 11 15 12 11 9 9 8 8 9 7 9 9 14 20 23 22 22 21 17 15 13 13 17 19 19 20 28 26 22 21 17 12
22 20 16 20 20 17 12 10 14 13 12 12 13 10 7 6 5 8 11 11 11 9 9 13 14 19 21 23 23 18 19 16 12 17 18 20 25 28 27 22 19 14 14
21 21 21 21 22 15 11 11 9 12 14 16 14 11 7 6 6 8 13 16 15 9 9 11 13 17 20 19 18 17 17 14 14 16 17 19 24 24 24 21 17 14 14
21 21 20 22 15 15 14 9 10 13 15 16 17 13 9 9 11 13 16 14 16 13 8 10 11 15 18 16 19 14 14 12 14 16 14 19 24 24 20 19 17 16 15
22 21 18 22 19 13 14 11 14 14 14 14 17 15 13 12 14 14 14 11 12 14 10 8 10 13 15 16 15 16 14 13 17 17 16 19 19 18 17 15 18 16 16
23 22 15 20 18 20 18 17 15 16 14 11 15 13 13 13 15 14 12 10 9 9 8 8 9 10 13 16 18 15 14 15 15 16 16 17 17 17 17 16 16 17 16
24 20 18 16 18 24 16 14 18 19 20 16 16 10 14 13 10 11 9 7 9 7 11 9 7 8 10 16 15 12 12 13 14 14 16 16 17 16 16 18 19 20 19
26 23 19 14 18 19 17 16 17 21 22 23 16 15 20 19 16 11 9 7 5 5 9 11 12 10 9 8 9 9 10 11 10 12 13 14 13 14 12 17 19 19 20
26 22 21 14 21 19 16 17 17 28 27 17 18 20 20 15 17 18 8 10 7 11 19 13 16 17 17 18 18 17 15 15 18 20 14 14 17 16 18 22 19 20 23
31 23 22 13 26 21 21 20 14 24 24 21 28 21 18 16 22 23 22 19 14 13 13 14 13 17 23 19 13 13 12 11 12 12 15 19 17 16 16 19 21 23 23
13 24 20 15 23 24 21 25 29 30 35 33 29 21 19 23 25 25 20 19 17 15 11 9 7 7 11 10 13 13 15 14 15 18 20 20 19 20 20 21 20 21 20
Wind_Direction
186 178 181 165 172 177 171 177 179 185 187 185 183 191 199 210 205 213 196 216 246 229 225 229 216 226 213 205 207 197 210 210 164 158 181 172 179 168 175 177 174 177 176
173 169 162 167 177 176 174 176 181 181 179 174 186 197 211 189 205 207 192 211 236 224 207 214 209 224 216 215 212 205 209 205 206 186 177 179 179 177 182 178 184 177 177
165 166 164 166 169 162 171 180 185 177 173 180 184 187 180 195 194 177 182 206 216 242 213 213 216 225 214 206 202 201 213 198 202 209 186 182 175 175 175 179 179 172 170
159 167 164 162 164 166 170 172 171 174 172 178 176 180 185 194 197 191 198 221 221 228 205 201 221 222 237 217 198 211 204 194 186 204 183 174 167 175 180 176 168 167 164
157 158 162 162 165 167 173 169 173 170 171 170 167 179 187 200 201 188 215 212 220 222 200 216 233 239 214 204 210 214 204 187 193 194 174 170 176 176 177 175 165 164 162
158 160 160 162 166 171 166 170 169 167 165 177 168 184 192 192 196 212 211 224 220 225 213 211 317 272 215 212 202 196 182 190 203 170 177 176 177 185 184 177 170 165 158
155 155 160 161 166 172 168 171 169 169 177 181 186 191 199 206 213 219 229 231 225 225 232 268 295 263 215 204 199 175 177 173 189 172 176 185 183 186 180 182 173 169 167
156 159 162 167 169 173 176 168 172 181 183 190 180 194 205 196 206 217 214 212 203 216 223 267 285 204 173 169 173 175 167 160 161 176 184 173 174 180 187 183 177 175 168
162 164 168 178 171 172 170 175 181 186 181 182 180 181 186 180 190 189 185 193 201 206 220 244 166 159 164 154 160 162 166 156 162 162 158 169 170 174 179 181 179 177 168
165 169 172 167 165 170 175 185 190 191 186 177 181 175 188 178 173 167 173 178 195 202 196 194 169 157 157 159 165 170 161 154 163 151 159 153 162 179 186 184 185 181 182
166 168 169 170 175 179 183 190 185 169 178 169 172 172 184 176 168 163 166 180 220 191 180 182 181 169 155 156 165 177 176 163 166 149 144 147 156 165 184 184 188 195 184
167 165 164 166 182 175 183 174 171 177 177 174 171 172 179 187 174 171 173 186 172 135 140 190 181 170 158 155 160 162 168 170 159 149 148 150 155 163 173 182 185 192 182
165 163 156 167 182 184 184 177 168 177 183 177 170 167 189 178 172 170 163 161 170 163 203 209 180 167 158 161 156 160 158 164 162 152 154 160 162 157 162 173 171 163 167
157 159 155 166 172 182 183 175 181 178 178 175 171 177 166 171 179 177 176 184 202 205 171 153 155 159 153 157 155 160 170 177 165 158 156 159 161 158 156 161 170 164 170
155 155 160 173 181 176 173 178 177 186 182 188 175 177 176 176 188 191 179 186 188 172 150 148 161 165 160 153 162 169 175 178 178 169 161 158 163 162 161 166 162 161 172
147 157 158 170 166 171 172 175 173 190 184 177 170 170 176 188 200 201 181 186 172 164 158 154 168 176 170 171 170 167 176 179 176 176 176 174 173 169 166 163 179 192 197
160 170 169 172 176 162 158 166 179 165 166 161 164 172 180 201 214 194 181 167 164 156 159 161 169 176 175 176 178 182 178 188 192 183 185 192 183 178 184 184 187 198 203
169 171 163 169 165 168 161 165 170 166 167 169 172 184 174 172 165 161 158 158 153 145 148 158 169 179 176 177 173 179 181 188 190 190 200 188 186 186 186 194 195 208 209
174 179 177 169 157 180 152 162 156 160 166 181 182 180 166 157 148 149 148 155 154 142 134 152 154 169 175 173 177 179 178 178 175 170 178 178 180 179 191 198 211 214 222
174 181 175 163 153 162 166 153 156 163 175 169 173 176 168 161 152 152 150 141 152 157 147 143 149 163 165 169 177 177 174 171 174 180 182 176 180 192 200 216 217 225 230
177 188 182 158 155 172 173 169 164 161 161 155 163 173 171 159 150 139 137 146 149 158 163 168 147 146 165 163 165 175 182 184 188 189 188 191 195 208 209 220 230 229 245
174 188 192 174 171 172 179 165 163 156 163 149 168 156 156 142 145 137 132 148 148 164 172 185 176 167 164 177 168 175 179 185 194 195 203 219 223 222 225 223 244 253 248
167 176 194 190 169 170 172 167 164 164 166 163 165 159 155 160 166 154 123 153 178 147 144 151 188 195 177 175 188 187 198 212 214 224 228 234 243 245 238 231 238 249 257
165 175 205 199 163 157 166 176 177 164 159 147 135 146 159 168 173 191 141 126 133 164 197 214 192 192 198 200 207 214 217 217 228 231 233 237 243 251 261 259 256 258 266
165 170 196 209 164 168 173 165 166 151 155 140 139 133 135 134 150 161 174 176 175 165 174 156 134 170 194 187 198 209 219 226 228 226 228 225 236 249 260 264 273 273 272
157 169 174 197 162 148 156 146 133 138 141 143 150 152 141 135 140 142 147 159 173 176 164 173 177 199 208 212 215 222 225 234 241 244 246 248 244 247 251 251 262 263 270
Height
1382 1388 1392 1396 1399 1402 1410 1415 1419 1423 1426 1430 1434 1436 1438 1440 1442 1444 1445 1447 1449 1450 1451 1452 1453 1454 1456 1458 1460 1462 1463 1464 1464 1467 1470 1472 1476 1480 1482 1486 1490 1493 1497
1382 1387 1391 1394 1397 1403 1408 1413 1417 1422 1425 1430 1432 1434 1437 1439 1441 1442 1444 1446 1448 1449 1450 1451 1452 1452 1454 1456 1458 1461 1462 1463 1463 1465 1469 1472 1475 1478 1481 1485 1488 1493 1497
1383 1386 1390 1392 1397 1403 1408 1413 1418 1422 1425 1428 1431 1432 1436 1438 1440 1442 1444 1445 1446 1448 1449 1450 1451 1451 1452 1454 1456 1459 1461 1462 1462 1464 1466 1471 1474 1477 1480 1484 1488 1493 1497
1381 1384 1388 1393 1399 1404 1409 1413 1418 1421 1424 1426 1429 1432 1434 1436 1439 1441 1443 1444 1445 1446 1447 1448 1449 1450 1450 1452 1453 1457 1459 1461 1461 1463 1466 1469 1473 1477 1480 1483 1487 1492 1496
1380 1385 1390 1395 1400 1405 1409 1413 1417 1420 1423 1425 1429 1432 1434 1435 1438 1440 1442 1443 1443 1444 1445 1446 1447 1447 1449 1451 1452 1455 1457 1459 1460 1462 1464 1468 1472 1476 1479 1483 1487 1491 1498
1381 1386 1391 1396 1401 1406 1410 1413 1416 1419 1422 1425 1429 1430 1431 1434 1436 1439 1440 1441 1441 1442 1444 1445 1445 1445 1446 1449 1452 1453 1457 1457 1459 1461 1463 1466 1470 1475 1479 1482 1486 1491 1497
1382 1387 1392 1397 1402 1406 1409 1413 1415 1418 1421 1424 1427 1429 1431 1433 1435 1437 1438 1439 1440 1441 1442 1443 1443 1442 1444 1447 1451 1453 1456 1458 1460 1461 1463 1466 1469 1473 1478 1482 1488 1491 1495
1384 1389 1393 1398 1402 1406 1409 1412 1415 1417 1420 1423 1426 1427 1429 1432 1434 1435 1436 1437 1438 1439 1440 1441 1441 1442 1444 1447 1450 1453 1456 1459 1461 1462 1465 1467 1470 1473 1477 1483 1488 1493 1500
1385 1389 1394 1397 1401 1404 1408 1411 1414 1416 1419 1422 1425 1427 1428 1431 1432 1434 1435 1436 1437 1438 1439 1440 1441 1441 1443 1447 1450 1452 1455 1458 1460 1463 1465 1468 1471 1474 1476 1483 1490 1494 1499
1385 1390 1394 1396 1399 1403 1407 1410 1413 1416 1418 1421 1424 1426 1428 1430 1431 1433 1434 1435 1436 1436 1439 1440 1441 1442 1445 1448 1451 1453 1455 1458 1461 1462 1464 1468 1472 1476 1480 1486 1490 1494 1498
1386 1390 1393 1396 1400 1404 1407 1410 1412 1415 1417 1420 1423 1426 1428 1429 1430 1432 1434 1435 1436 1437 1438 1440 1441 1443 1446 1449 1451 1455 1457 1459 1461 1463 1466 1469 1473 1477 1481 1486 1491 1496 1499
1385 1388 1391 1395 1401 1404 1407 1410 1412 1415 1417 1420 1422 1425 1427 1428 1430 1432 1434 1435 1436 1437 1438 1440 1441 1443 1447 1451 1453 1455 1458 1461 1462 1465 1468 1471 1475 1480 1484 1488 1491 1497 1500
1384 1385 1391 1396 1401 1404 1407 1409 1412 1415 1417 1419 1422 1424 1425 1427 1430 1432 1434 1435 1436 1437 1438 1439 1440 1444 1448 1452 1455 1458 1460 1462 1464 1467 1470 1474 1478 1481 1485 1490 1495 1500 1504
1381 1385 1391 1395 1400 1405 1407 1410 1413 1415 1417 1419 1422 1423 1426 1428 1430 1432 1433 1435 1436 1437 1438 1439 1441 1445 1450 1453 1456 1460 1462 1464 1467 1469 1473 1476 1479 1483 1487 1492 1495 1500 1505
1380 1386 1392 1396 1400 1405 1407 1410 1413 1414 1416 1419 1421 1423 1426 1428 1430 1431 1433 1434 1435 1437 1439 1440 1443 1447 1451 1454 1457 1461 1464 1466 1469 1471 1474 1477 1481 1485 1489 1493 1497 1501 1504
1383 1386 1392 1397 1401 1404 1407 1409 1412 1414 1416 1418 1421 1423 1426 1428 1430 1431 1433 1434 1436 1437 1439 1442 1444 1448 1451 1455 1458 1462 1465 1467 1470 1472 1475 1479 1482 1485 1489 1493 1498 1501 1504
1384 1389 1392 1395 1400 1403 1406 1408 1410 1413 1416 1419 1421 1424 1426 1428 1429 1431 1432 1434 1436 1438 1440 1442 1445 1448 1451 1454 1459 1463 1466 1469 1471 1474 1476 1480 1483 1487 1491 1494 1498 1502 1504
1385 1389 1393 1396 1399 1403 1405 1408 1410 1412 1414 1418 1421 1424 1425 1427 1429 1430 1431 1435 1438 1440 1441 1443 1445 1448 1452 1456 1459 1463 1467 1469 1471 1474 1476 1479 1483 1487 1491 1495 1498 1500 1502
1384 1388 1392 1396 1399 1401 1405 1408 1410 1412 1414 1415 1419 1423 1426 1428 1430 1432 1434 1436 1439 1441 1442 1444 1446 1449 1453 1456 1460 1463 1466 1469 1471 1474 1476 1479 1483 1487 1491 1494 1496 1498 1500
1384 1388 1391 1395 1398 1403 1406 1408 1410 1412 1414 1415 1419 1423 1426 1429 1431 1433 1436 1438 1440 1443 1445 1446 1447 1450 1453 1456 1459 1463 1466 1469 1472 1474 1477 1480 1484 1487 1489 1492 1493 1495 1496
1383 1386 1392 1393 1397 1402 1404 1408 1409 1411 1415 1417 1420 1423 1427 1431 1433 1436 1438 1440 1442 1444 1446 1448 1450 1452 1455 1458 1461 1464 1466 1469 1472 1475 1478 1480 1483 1485 1488 1489 1491 1492 1493
1380 1385 1390 1394 1396 1400 1403 1406 1408 1410 1415 1417 1422 1425 1429 1433 1436 1438 1440 1441 1443 1445 1448 1450 1452 1454 1457 1459 1462 1465 1467 1470 1472 1475 1477 1480 1481 1483 1484 1486 1487 1488 1489
1378 1385 1389 1392 1395 1398 1402 1405 1408 1411 1415 1416 1420 1425 1429 1432 1436 1438 1441 1442 1444 1447 1448 1450 1452 1454 1457 1459 1462 1465 1468 1470 1471 1473 1475 1476 1478 1479 1480 1481 1482 1483 1484
1376 1384 1387 1391 1393 1399 1402 1405 1408 1410 1412 1416 1420 1425 1429 1432 1434 1438 1441 1443 1446 1444 1446 1451 1453 1456 1457 1460 1462 1464 1466 1468 1469 1470 1472 1474 1475 1476 1478 1478 1478 1479 1479
1377 1381 1386 1390 1391 1397 1401 1405 1409 1410 1411 1416 1421 1428 1428 1429 1430 1434 1438 1440 1442 1444 1446 1448 1451 1452 1455 1458 1460 1462 1463 1466 1467 1468 1469 1470 1472 1473 1474 1474 1474 1473 1473
1376 1381 1384 1386 1388 1391 1398 1400 1401 1407 1411 1416 1420 1426 1428 1429 1430 1433 1436 1439 1442 1445 1447 1449 1451 1453 1455 1456 1458 1460 1461 1463 1464 1465 1465 1466 1466 1466 1465 1464 1464 1464 1464